Theta_e
311 311 311 311 310 310 310 310 310 309 308 307 306 305 305 305 306 307 307 308 308 309 311 311 309 310 310 310 309 308 309 309 308 308 307 307 307 306 307 307 306 306 306 306 307 307 309 310 311 311 310 309 310 310 310 309 309 310 310 310 312 315 318 317 316 319 321 320 321 322 321 324 324 323 323 323 323 322 322 326 327 322 319 323 322 318 324
312 311 311 311 311 311 311 311 310 309 308 307 305 305 305 305 306 307 307 307 307 309 309 309 309 310 310 310 310 309 309 308 308 307 307 307 306 306 307 306 306 307 307 307 308 308 309 310 311 311 310 309 310 310 310 309 308 309 310 312 313 314 316 315 317 326 329 321 321 326 327 323 320 321 323 322 324 324 325 329 327 322 320 320 320 317 324
312 312 312 311 311 311 311 311 311 310 308 307 305 304 305 305 306 306 306 306 307 307 307 307 308 309 309 310 309 308 309 309 308 308 307 307 307 307 307 307 307 307 307 308 307 308 308 309 310 311 310 309 310 310 310 309 308 310 312 314 312 313 315 315 316 324 328 323 323 324 323 318 316 320 322 322 324 322 322 325 321 320 324 322 319 319 325
312 312 312 311 311 311 310 311 311 310 309 308 305 304 305 306 307 307 306 306 306 305 305 305 306 307 308 310 310 308 308 309 308 308 308 308 308 307 307 307 307 308 308 307 307 308 308 307 309 311 310 309 309 309 309 308 309 311 313 313 311 313 315 315 316 318 319 319 319 316 316 315 315 318 319 319 322 321 324 324 320 324 328 322 321 323 324
312 312 312 311 311 311 310 310 310 309 308 307 305 305 305 305 306 306 305 307 306 305 305 304 305 306 307 310 310 308 307 308 309 309 308 308 308 307 308 307 307 308 308 307 308 308 308 308 308 310 310 309 308 309 309 309 310 311 310 309 310 313 313 313 314 315 314 314 315 313 313 314 314 316 316 318 321 323 323 320 322 331 326 319 329 336 324
312 312 311 311 311 311 309 309 308 307 307 306 305 305 305 305 306 305 304 306 306 305 305 305 305 306 308 310 310 308 308 308 308 308 308 307 308 308 309 308 307 308 308 307 308 308 308 308 308 309 309 308 308 309 309 309 310 309 308 308 309 311 311 311 312 313 312 312 312 312 312 313 314 317 318 320 322 324 323 321 325 332 323 320 339 347 330
312 311 311 311 310 311 309 308 307 305 305 305 305 305 306 305 305 305 304 305 305 304 305 305 305 306 308 310 310 308 308 308 308 308 307 308 308 308 309 309 308 308 308 308 308 308 308 309 309 308 309 308 308 310 311 311 310 308 307 308 308 310 312 312 311 311 311 311 311 312 313 315 316 318 320 322 324 325 325 324 327 331 329 330 342 348 336
311 310 311 310 310 310 309 307 306 305 305 305 305 305 305 305 305 305 304 305 305 304 305 305 306 306 308 310 311 309 309 309 308 308 308 308 308 308 309 309 308 308 308 308 308 308 308 309 309 308 308 308 308 311 313 312 311 308 307 308 308 310 313 312 311 311 311 311 313 314 314 314 316 319 324 327 329 327 323 324 328 329 330 334 338 340 337
310 309 310 310 310 309 308 306 305 305 305 306 305 305 305 305 306 305 305 305 305 305 305 305 305 307 308 310 310 308 308 309 308 309 308 308 308 309 309 308 308 308 308 308 308 308 308 309 308 307 308 307 307 310 311 310 309 309 308 308 308 310 312 312 311 312 312 311 312 313 312 315 320 323 327 330 333 330 326 330 335 332 330 335 336 334 336
309 308 310 310 309 309 308 306 305 305 306 306 306 306 306 306 306 305 305 305 305 305 305 304 305 308 308 307 307 307 307 307 308 308 308 308 308 309 309 308 308 308 308 308 309 308 307 307 307 307 307 307 307 307 308 308 309 309 309 309 308 309 311 312 312 313 314 312 311 312 316 322 329 329 325 328 334 337 338 341 340 338 338 339 335 334 338
309 307 308 309 309 308 307 306 305 305 306 306 305 305 305 306 306 306 305 305 306 305 304 304 305 306 306 305 306 306 306 307 308 308 308 308 308 309 308 308 309 309 309 308 308 308 308 308 308 307 307 307 307 307 308 308 308 309 309 309 309 309 310 311 311 313 314 312 311 318 327 332 334 331 324 324 330 336 339 341 338 337 340 339 338 340 342
308 306 306 307 308 307 306 306 305 305 305 305 305 305 305 306 307 306 305 305 306 305 304 304 305 305 305 305 305 305 306 307 308 308 308 308 308 308 308 308 308 309 309 308 308 308 308 308 307 308 307 307 307 308 308 308 308 308 308 309 309 309 310 310 311 313 314 313 316 329 341 336 330 329 324 323 326 329 334 340 338 336 338 338 340 342 342
308 306 306 307 308 308 307 307 306 305 305 305 306 306 306 306 307 306 305 305 305 305 304 305 305 305 305 305 305 306 306 307 307 308 308 308 308 308 308 308 308 308 308 309 308 308 309 310 310 309 308 308 308 308 308 308 308 308 308 308 308 309 309 310 312 313 315 316 319 328 335 330 326 327 325 323 325 326 330 338 340 337 335 337 340 341 341
307 307 308 310 311 310 309 308 307 307 307 306 306 306 306 306 307 307 306 305 306 305 305 305 305 305 305 306 306 306 306 306 308 308 308 308 308 308 308 308 309 308 309 309 308 308 309 311 311 310 310 310 310 311 310 309 309 308 308 308 309 309 309 309 311 314 316 317 316 319 327 331 331 330 325 322 324 325 327 335 340 337 334 335 338 340 341
308 309 311 312 312 311 309 308 308 308 308 307 307 307 306 306 307 308 307 306 305 305 305 305 306 305 305 306 306 306 305 307 308 308 308 308 308 308 308 308 308 308 309 309 309 310 310 310 310 311 311 311 310 311 311 311 311 310 309 309 308 308 309 309 311 315 316 315 315 319 330 338 335 328 323 322 325 325 324 331 340 338 333 333 337 340 342
310 312 312 313 312 310 309 308 308 308 309 308 308 307 307 307 307 308 307 306 306 306 306 305 305 305 305 306 306 305 306 307 308 308 308 308 308 308 309 309 308 309 309 308 309 310 310 310 310 310 311 311 309 310 311 312 313 313 312 311 309 309 310 309 310 313 312 312 314 319 327 334 330 324 323 324 327 326 326 336 344 338 332 333 336 339 341
313 313 313 313 312 310 309 309 308 308 308 309 308 308 308 308 307 308 308 307 306 306 306 305 305 306 306 306 306 307 307 308 308 308 308 309 308 308 309 309 308 308 309 310 311 311 311 311 310 310 311 310 309 311 312 313 314 315 315 313 310 309 310 309 309 311 312 313 315 318 325 330 326 323 325 327 327 327 333 344 346 335 330 331 334 337 340
313 314 313 313 312 310 309 309 308 309 309 309 309 308 308 308 308 308 308 307 307 306 306 306 306 306 306 306 307 308 307 308 308 308 309 309 308 308 309 309 309 309 309 310 311 311 310 310 310 310 311 309 309 311 312 312 314 314 314 315 313 311 312 312 311 311 313 315 314 315 324 329 324 323 327 327 328 333 340 344 338 331 329 330 331 335 337
314 314 313 313 312 311 309 309 309 309 309 309 309 309 308 309 308 308 308 308 307 307 307 307 306 307 307 307 307 307 307 308 308 309 309 309 309 309 309 308 308 308 309 309 311 310 310 311 310 309 311 311 311 311 311 312 313 313 314 316 316 314 314 313 311 312 314 314 313 316 324 327 324 325 327 327 330 336 337 335 331 328 328 329 329 331 333
313 313 313 313 313 312 310 309 309 309 308 308 309 309 309 309 309 309 309 308 308 307 307 307 307 307 307 307 307 308 308 308 309 309 309 309 309 309 309 309 308 308 309 309 310 310 310 311 311 310 311 312 312 312 311 311 312 312 313 315 316 316 316 315 314 315 315 313 314 320 326 326 324 327 327 326 328 330 328 328 328 327 327 327 327 329 331
313 313 313 314 313 312 312 311 310 309 308 308 308 308 309 309 308 309 309 309 308 308 308 308 308 308 308 308 308 308 308 308 309 309 309 309 309 309 310 309 308 308 309 310 310 310 309 310 311 310 311 311 311 311 311 311 312 312 313 314 315 316 317 315 316 317 316 317 320 322 323 323 324 327 327 324 322 322 323 325 327 326 325 325 326 327 329
313 313 314 314 314 313 313 312 311 310 309 308 308 308 309 309 308 309 309 309 309 309 309 309 309 309 309 309 309 309 309 309 309 309 309 309 309 309 309 309 307 308 309 309 310 310 310 311 311 310 310 310 310 310 310 311 312 313 313 314 315 315 315 314 315 315 315 317 320 320 320 322 322 323 324 322 320 319 319 321 323 323 322 322 323 325 327
313 314 315 315 315 314 314 313 313 312 311 310 309 309 309 309 308 309 309 309 309 309 309 309 309 310 310 310 310 310 310 310 310 310 309 309 309 309 309 309 308 308 308 309 310 310 310 311 311 310 310 311 311 310 310 311 313 313 313 313 313 313 312 313 314 314 314 315 316 315 318 322 320 319 320 320 318 317 317 318 320 320 319 319 320 324 327
314 315 316 316 315 314 314 314 313 313 312 311 311 310 310 309 309 309 309 309 309 309 310 310 310 310 311 311 310 311 311 311 311 311 310 309 309 309 309 309 309 309 309 309 309 309 309 310 310 310 310 311 310 310 310 311 312 312 312 312 312 311 311 311 312 313 314 316 316 312 314 319 320 317 318 317 315 314 315 317 318 317 318 318 318 321 328
315 316 316 315 315 314 314 314 314 313 312 312 312 312 311 310 310 309 309 309 309 309 310 310 311 311 311 311 311 311 311 311 311 311 311 310 310 310 310 310 309 309 309 309 309 308 308 309 310 310 310 310 310 311 311 310 311 311 310 310 311 311 311 311 312 312 312 314 313 311 313 318 318 316 317 318 315 313 314 315 316 316 316 318 317 318 325
316 317 316 315 315 315 314 314 314 314 313 313 313 312 311 311 310 310 310 309 309 310 310 310 311 312 311 311 311 311 310 311 311 311 311 311 311 311 310 310 310 309 309 309 309 308 308 309 310 310 310 309 309 310 310 310 310 310 309 309 310 310 310 310 310 311 310 310 312 312 314 315 315 314 316 317 316 315 313 313 314 315 315 316 317 317 320
317 317 316 316 316 315 315 315 315 314 314 314 314 313 312 311 311 311 310 310 310 311 311 310 311 312 312 312 312 311 311 311 311 312 312 312 312 311 311 310 310 310 309 309 308 308 308 308 309 309 309 309 309 309 309 309 309 309 309 309 309 309 310 309 310 310 310 310 311 313 312 312 312 313 314 315 316 316 314 312 314 315 315 316 319 319 317
318 318 317 316 316 315 315 315 315 315 315 315 314 314 313 312 311 311 310 310 310 311 311 310 311 312 313 313 313 312 312 312 312 312 313 313 311 311 311 311 310 310 309 309 309 309 308 307 308 308 308 308 308 309 309 309 309 309 309 309 309 309 309 309 309 310 310 310 310 311 311 310 310 311 312 313 315 316 315 313 313 315 315 316 319 322 320
319 319 317 317 317 316 316 316 316 316 316 315 315 315 314 314 312 311 311 310 310 310 310 310 311 312 313 314 315 314 313 313 313 313 312 312 311 311 311 310 310 310 309 309 309 309 308 307 308 308 307 307 308 309 309 309 310 310 309 309 309 309 309 309 309 309 309 309 309 309 310 310 310 311 312 312 313 315 317 315 313 313 314 314 316 320 322
319 320 319 318 318 317 317 317 317 317 317 316 316 315 314 314 313 312 311 310 310 310 310 309 311 313 313 314 315 315 314 313 312 312 312 311 311 311 310 310 310 310 310 309 308 308 308 308 307 308 307 307 308 308 309 309 309 309 309 309 308 308 308 308 308 309 308 309 309 309 309 310 310 310 311 311 311 314 316 315 313 313 314 314 314 316 318
319 320 319 319 319 319 318 318 318 318 318 317 317 315 314 314 314 313 311 310 310 311 309 308 310 312 312 313 315 316 315 313 312 312 312 311 311 311 310 310 310 310 309 309 308 308 308 308 308 308 307 307 308 308 308 308 309 309 308 308 307 308 308 308 308 309 309 309 309 309 309 310 310 310 310 310 311 313 314 314 314 313 314 313 313 314 313
318 320 320 319 320 320 320 319 319 318 318 318 317 317 316 315 315 313 312 311 311 310 309 309 311 312 312 313 316 316 316 315 313 313 312 312 312 311 310 310 310 310 310 309 309 308 308 308 308 308 308 307 308 307 306 307 308 308 307 307 308 309 309 310 311 311 311 311 310 309 309 310 311 311 310 311 311 313 313 313 313 313 313 313 313 313 313
318 320 320 320 320 320 320 320 320 319 318 318 318 318 317 316 315 313 312 312 311 310 308 309 311 313 314 315 316 317 317 317 316 314 313 313 313 313 312 311 311 311 311 311 310 309 309 309 308 308 308 306 305 305 306 306 307 307 307 308 309 310 310 312 314 314 315 315 313 311 311 311 312 311 310 310 311 312 312 312 312 312 313 313 313 313 312
318 320 320 320 321 321 321 321 320 320 319 318 319 319 317 317 315 314 313 312 311 311 310 310 311 314 315 317 318 318 318 318 318 316 315 314 314 314 313 313 312 312 311 311 310 310 310 309 308 308 307 305 303 304 305 306 306 307 308 309 309 309 310 311 313 315 316 315 315 314 314 314 313 311 311 310 310 311 312 313 312 312 312 313 313 313 313
318 318 319 320 321 321 321 320 320 320 319 319 319 318 318 317 316 315 314 313 312 312 312 311 312 314 316 319 321 319 318 318 319 318 316 314 314 313 313 312 312 313 312 312 311 311 310 309 309 308 307 305 305 306 307 307 307 308 309 309 309 309 309 310 311 313 314 314 314 314 314 314 312 311 310 310 310 311 312 312 311 312 313 313 313 313 312
318 318 318 319 320 321 321 321 320 320 319 319 319 318 318 317 316 316 315 314 313 313 312 312 313 314 316 318 320 318 317 319 319 318 317 317 316 314 313 314 314 313 312 312 312 312 311 310 309 308 307 307 308 309 308 308 308 308 308 309 308 309 309 309 310 312 313 314 313 313 313 313 312 311 310 310 310 310 310 311 311 312 313 313 313 313 312
318 318 319 319 319 321 322 321 320 319 319 320 319 319 319 318 317 316 316 315 314 314 313 313 315 315 315 317 317 317 317 319 319 318 318 318 317 315 315 316 315 313 313 314 314 313 311 309 308 308 308 309 309 309 308 308 308 307 308 308 308 308 308 309 310 312 313 314 314 313 313 312 311 310 310 310 310 310 310 311 312 312 312 312 312 314 315
318 319 319 319 320 321 322 320 319 319 320 320 319 319 319 319 318 317 316 316 315 315 314 314 315 316 316 316 318 319 318 317 318 319 319 318 316 316 316 316 316 314 315 315 313 312 312 311 308 308 309 310 310 309 309 308 307 307 307 308 308 308 308 309 310 312 313 315 315 314 313 312 311 310 310 310 310 310 311 311 312 311 311 312 314 316 318
318 318 318 320 321 321 320 320 320 320 320 320 320 319 319 319 320 320 318 316 315 316 315 315 315 316 316 318 319 319 318 318 319 320 320 319 318 317 317 317 316 315 316 315 313 312 313 313 310 309 310 310 310 310 309 308 307 307 307 307 308 308 308 308 310 312 314 315 315 314 313 312 311 311 310 310 310 311 311 312 313 313 314 315 318 320 319
318 318 319 320 321 320 320 319 319 319 319 320 321 320 318 319 322 323 321 319 319 318 317 317 318 317 318 319 319 318 319 320 320 320 321 319 318 317 317 316 316 316 317 316 314 312 313 313 311 310 310 311 311 309 309 308 308 307 307 307 307 307 308 308 309 311 313 314 314 313 312 311 311 311 311 312 313 314 315 316 317 318 319 319 320 321 320
318 318 319 320 320 320 320 319 319 320 321 321 321 321 319 319 320 320 320 322 323 320 317 318 319 318 317 319 319 318 319 320 320 319 320 319 318 317 316 315 315 317 318 316 314 313 313 313 312 311 311 312 311 310 309 309 308 307 307 307 307 307 307 308 308 309 311 312 313 313 312 312 313 313 314 315 316 317 317 318 318 319 319 320 319 319 319
318 318 318 320 320 320 320 320 320 320 320 320 321 320 319 319 318 319 320 320 320 319 318 319 319 318 317 318 319 318 319 320 320 319 319 320 319 318 318 317 316 316 315 314 313 314 313 312 312 312 311 312 312 311 310 310 309 308 307 307 306 307 307 307 308 308 309 310 311 312 312 312 312 312 313 314 314 315 315 315 316 317 317 318 318 318 319
317 316 318 320 320 321 320 319 317 317 320 322 320 318 319 320 319 318 319 319 317 317 319 318 317 318 319 318 318 318 318 320 320 321 320 319 316 315 317 318 315 313 312 312 314 314 312 311 312 312 311 311 312 311 310 309 308 308 307 307 306 306 306 306 307 307 307 308 309 310 311 311 311 311 311 311 311 312 312 313 313 314 315 316 316 316 316
316 316 317 318 318 318 318 317 314 313 317 321 319 317 318 319 317 316 318 317 315 315 316 315 315 318 320 319 318 319 318 319 320 319 317 315 314 314 316 316 314 312 312 314 314 313 311 310 311 311 311 312 312 311 311 309 308 308 308 307 306 306 306 306 306 307 307 307 307 308 309 310 310 310 311 311 311 311 310 310 311 312 312 313 314 313 313
315 315 316 316 315 314 315 316 315 314 314 316 318 317 316 316 316 315 316 315 313 314 315 314 315 317 319 318 318 317 317 319 319 316 313 315 317 316 314 314 314 314 314 314 314 312 311 310 310 311 311 312 312 312 311 310 308 308 308 307 306 306 306 306 305 306 306 306 306 307 307 308 308 309 309 310 310 311 310 310 310 310 310 311 311 311 311
315 315 315 315 314 313 313 315 316 316 314 314 315 315 314 314 314 313 313 313 313 314 314 315 317 318 316 316 316 315 314 316 318 315 313 317 317 314 312 313 314 314 314 313 313 312 310 310 310 310 310 310 311 312 311 310 309 308 308 308 307 307 306 306 305 305 305 306 306 306 306 307 307 308 308 308 309 309 310 310 310 309 309 309 309 309 310
315 313 314 315 314 314 314 315 315 313 313 312 312 312 312 312 312 312 312 313 313 312 313 316 318 317 315 314 316 314 313 314 316 314 313 315 315 313 313 314 314 313 313 312 311 310 310 310 310 310 309 309 310 310 310 310 310 310 309 309 308 308 307 306 306 305 305 305 305 305 305 305 306 306 307 307 307 307 308 309 309 309 309 309 308 308 308
314 313 314 316 315 314 314 314 313 312 312 312 312 311 312 312 312 312 312 311 311 312 313 314 315 316 315 314 315 314 313 314 316 315 313 313 313 314 314 314 313 312 311 310 310 310 310 310 309 309 307 307 308 309 310 310 310 310 310 309 309 308 307 306 306 306 305 305 305 305 305 304 304 305 306 307 307 306 307 307 308 308 308 309 309 308 307
313 313 314 316 315 312 311 312 313 312 311 311 311 311 312 312 312 312 311 310 311 312 313 313 314 316 316 314 315 315 314 314 314 315 314 314 314 314 313 313 313 312 310 310 310 310 309 309 308 308 306 306 307 308 309 310 309 309 309 309 308 308 308 307 306 306 306 305 305 305 305 304 304 304 304 305 306 306 306 306 307 307 307 307 308 308 308
314 314 314 315 314 313 312 313 314 314 312 311 311 311 311 312 311 311 311 310 309 311 313 313 313 314 313 313 316 317 315 313 314 315 315 313 313 313 313 312 312 311 310 310 310 309 309 308 308 306 305 305 305 307 308 309 309 309 308 307 307 307 307 307 307 306 306 306 305 305 305 304 304 304 304 304 305 306 306 306 306 306 306 306 306 307 307
314 314 313 314 314 313 313 313 315 314 313 311 311 311 311 311 311 311 311 309 309 310 311 311 312 314 314 315 315 315 313 313 314 315 314 312 312 313 312 311 311 310 309 310 309 308 308 307 306 305 304 304 304 305 307 308 309 309 308 307 306 306 306 306 306 306 306 306 306 305 305 304 304 304 304 304 304 305 305 305 305 306 306 306 306 306 306
314 313 313 313 313 313 312 313 313 313 312 311 311 311 311 311 310 310 310 309 309 310 310 310 312 315 315 313 312 313 313 313 313 313 312 313 312 312 311 311 310 310 309 309 308 308 307 305 304 304 304 303 304 304 306 308 309 308 308 307 307 306 305 305 305 305 305 305 305 305 305 304 304 304 304 304 304 304 305 305 305 305 305 306 306 307 307
Wind_Speed
31 30 30 30 29 29 28 27 27 27 28 28 29 27 25 18 12 18 24 18 11 6 6 5 4 2 5 6 6 7 5 6 8 11 12 9 6 6 4 3 4 3 2 2 4 4 2 1 1 1 2 3 5 9 14 17 14 9 4 4 8 7 3 3 7 6 9 15 13 11 11 6 4 5 4 6 8 8 6 5 5 4 5 4 3 7 9
31 30 29 29 29 28 28 27 26 25 24 24 25 22 21 19 16 17 23 18 10 7 4 4 3 4 7 5 6 9 6 8 10 8 7 8 5 3 3 4 3 3 3 3 3 4 2 2 2 2 0 1 4 8 12 15 11 7 7 6 7 6 2 3 5 4 6 7 4 4 5 4 3 5 5 7 10 11 6 1 3 6 8 8 6 9 9
31 30 29 28 28 27 27 26 25 23 21 20 20 17 16 14 10 14 21 19 16 13 6 4 2 4 6 3 5 8 7 9 13 9 6 9 9 4 3 6 5 3 4 3 3 3 3 1 1 1 1 1 1 5 10 12 11 10 13 13 10 4 1 2 2 2 4 5 3 3 5 6 7 7 8 10 9 10 8 4 4 7 7 8 8 10 8
31 30 29 28 27 26 26 25 24 22 19 17 16 13 11 7 4 10 17 16 18 14 10 9 5 3 5 3 3 6 5 5 11 10 6 10 13 7 4 7 7 5 5 5 4 3 3 3 1 2 1 1 1 2 7 10 11 11 15 18 12 3 2 2 4 5 6 6 8 9 8 8 10 12 14 15 13 11 7 6 7 6 5 6 9 7 7
30 30 29 27 26 25 25 23 22 20 17 15 14 11 8 4 2 3 7 8 10 10 10 12 8 5 6 3 2 6 6 4 7 6 5 10 13 6 3 7 7 5 6 4 3 3 3 2 2 2 2 2 2 1 3 7 9 10 13 17 11 2 3 4 6 9 9 10 15 17 13 11 13 14 17 18 16 11 8 10 9 8 6 6 7 4 7
30 30 28 27 25 24 24 22 20 18 16 13 12 9 6 3 1 2 3 3 4 4 7 12 9 8 8 3 1 5 6 5 6 4 5 9 9 4 3 6 7 6 6 3 2 4 4 2 2 3 2 3 4 1 1 4 7 9 10 12 7 2 3 6 7 9 12 14 16 16 13 12 13 15 16 19 18 13 11 12 8 10 9 9 6 7 10
30 29 27 25 24 23 23 21 19 17 14 12 10 8 5 3 1 2 4 3 4 5 10 13 9 7 7 3 2 4 5 5 5 2 4 7 5 3 2 5 8 8 6 3 2 3 3 3 2 2 3 4 4 1 0 2 3 5 6 7 6 4 3 4 6 9 15 16 14 12 10 9 12 15 16 17 18 16 13 11 9 11 9 7 7 10 12
29 28 26 23 23 22 21 20 18 16 13 10 8 6 3 2 1 3 4 4 6 7 10 9 5 4 5 3 2 3 4 5 4 2 2 3 3 3 3 7 9 8 7 4 4 4 3 4 4 3 4 4 3 1 1 2 2 3 3 4 5 4 2 4 5 7 13 13 8 8 9 10 12 14 12 13 13 13 12 9 8 8 6 4 5 8 10
28 27 25 22 21 21 19 17 15 14 12 10 8 6 3 2 3 4 4 3 4 5 7 6 4 3 3 2 3 4 5 5 5 5 4 5 4 3 5 9 8 7 8 6 6 7 6 7 10 10 9 8 7 5 3 6 3 3 2 2 4 3 2 3 4 4 9 8 7 13 16 12 10 8 11 15 9 3 5 3 1 2 5 6 5 5 7
27 26 24 21 19 19 18 16 13 11 9 10 9 7 6 5 4 3 2 3 2 3 4 4 2 1 3 5 5 5 7 7 4 4 4 5 7 9 10 10 7 6 7 7 9 12 13 15 19 21 19 17 16 14 11 10 7 4 3 3 4 4 3 2 2 3 6 6 11 16 13 8 6 3 9 14 11 8 7 9 11 7 1 5 5 6 5
26 25 22 20 18 18 16 15 13 10 8 8 8 8 8 7 7 4 1 2 2 1 2 2 1 2 5 8 8 6 9 8 3 2 2 5 12 17 16 13 6 3 6 10 14 18 20 21 23 24 24 22 21 20 18 15 13 10 6 3 3 6 4 2 0 2 5 9 14 11 2 1 4 1 8 12 11 11 11 9 10 11 6 2 3 5 7
25 24 22 19 18 17 15 14 14 10 6 6 7 9 8 7 9 6 3 1 2 1 1 2 3 5 8 10 9 8 8 9 8 7 6 7 14 19 17 10 4 3 11 19 21 20 18 17 18 18 19 19 20 20 17 14 14 14 13 8 5 5 4 2 2 2 4 8 9 3 5 3 5 1 7 10 8 7 7 5 11 15 13 11 8 8 10
24 22 21 20 18 17 15 14 13 10 6 5 8 11 8 6 9 7 5 2 3 2 3 6 8 10 11 11 10 9 10 13 14 12 9 9 13 16 13 7 5 12 20 23 21 16 10 8 7 7 9 10 11 12 12 11 12 13 14 13 8 6 4 3 2 2 3 3 4 1 4 7 9 4 6 11 9 10 9 7 13 18 15 13 12 12 12
23 22 21 21 20 18 15 13 12 10 9 8 8 11 9 7 10 10 7 3 2 3 4 5 5 7 8 7 6 7 10 13 12 9 7 8 11 13 12 11 12 17 19 18 14 8 2 2 3 4 4 4 3 3 3 6 9 11 13 13 10 7 5 3 2 3 2 2 3 3 5 8 5 1 6 10 6 9 9 4 8 14 13 13 12 12 13
23 23 23 22 21 18 15 13 12 11 11 10 10 10 9 8 10 12 10 5 1 4 7 6 5 4 4 5 5 4 6 7 6 6 8 8 9 10 11 13 16 15 13 11 6 1 1 1 2 3 3 2 2 2 2 2 5 9 12 13 11 8 7 3 2 3 1 2 3 3 3 3 1 3 10 10 8 8 8 4 2 10 15 17 13 12 14
24 24 24 24 22 18 14 14 14 11 10 10 11 11 10 9 9 11 12 8 2 2 5 6 6 6 5 8 10 7 5 3 2 5 5 4 7 11 13 15 16 12 10 8 2 1 2 1 0 3 3 1 3 3 2 3 4 4 6 11 14 11 8 5 4 3 2 2 2 2 3 3 4 10 16 18 15 11 6 2 3 9 17 21 17 12 13
25 25 25 24 21 17 14 14 13 10 8 9 10 10 10 9 8 10 13 11 6 7 9 8 9 9 6 7 8 6 5 5 4 4 3 3 8 13 14 17 15 10 9 7 2 2 3 1 1 2 2 2 4 5 4 4 3 4 4 4 11 10 6 5 5 4 4 4 3 2 3 4 8 12 17 25 27 15 2 3 4 9 17 23 20 15 15
26 25 25 24 21 17 14 12 11 9 8 8 10 10 9 8 7 8 12 13 8 8 10 9 9 11 8 6 6 5 5 7 5 3 3 6 6 8 12 15 11 6 8 6 1 2 3 1 1 2 2 2 3 4 4 4 3 3 4 1 5 5 3 4 5 4 5 5 3 3 3 2 8 15 21 28 24 8 4 4 5 11 18 22 21 19 20
26 26 25 24 21 18 15 11 9 9 8 7 9 11 10 8 7 7 12 15 12 11 12 10 11 15 14 12 13 13 12 12 9 4 4 4 2 6 13 11 4 4 6 4 1 1 2 1 1 1 2 2 2 3 4 4 3 3 4 2 2 3 2 3 4 4 3 4 2 4 3 1 9 18 23 22 11 1 3 7 10 14 18 20 21 22 24
26 26 25 23 21 18 14 11 8 8 7 6 8 11 11 10 9 8 10 13 15 18 22 21 18 19 18 17 17 16 13 11 10 6 3 4 4 8 10 4 1 5 5 1 1 1 0 1 2 1 1 2 2 3 4 3 3 3 4 3 1 2 1 2 3 2 2 3 2 2 2 5 15 18 15 11 7 3 8 11 13 17 20 21 22 23 26
26 24 23 21 20 17 14 12 10 7 5 5 7 10 10 9 7 7 8 10 13 15 17 16 14 16 19 20 21 20 17 15 14 11 9 9 9 6 3 1 2 4 2 1 1 1 1 1 2 1 1 2 1 2 5 5 3 2 4 3 2 1 0 1 2 2 1 1 0 1 2 6 14 11 4 7 10 12 16 15 14 20 25 26 26 27 29
24 22 20 19 18 17 15 13 12 9 6 4 5 8 9 8 6 5 6 9 13 17 18 19 21 22 23 22 21 20 19 19 19 17 16 15 13 10 9 7 5 5 4 1 1 2 2 1 1 1 2 2 1 2 4 4 2 3 4 3 2 3 3 2 3 3 2 3 3 3 3 6 12 10 7 11 13 16 21 21 19 23 27 28 29 30 29
21 19 18 18 17 16 15 15 14 12 9 5 4 6 7 7 6 6 7 9 13 19 22 21 20 19 16 13 10 10 11 11 11 12 14 14 12 11 14 12 7 6 7 4 3 2 1 2 2 1 2 2 2 3 3 2 1 3 4 3 3 6 6 4 3 4 5 6 4 4 6 6 10 12 12 14 14 14 16 19 20 22 26 28 29 30 29
18 17 17 17 17 16 15 15 14 13 11 7 4 3 3 4 5 6 7 9 12 15 16 15 14 12 12 11 9 10 10 9 9 9 9 13 11 8 10 10 7 7 7 5 5 4 1 1 2 1 1 3 2 2 3 2 1 3 5 3 2 5 8 7 5 6 6 2 3 10 9 2 9 11 11 13 15 15 13 13 16 19 22 25 27 29 30
16 16 16 16 16 15 15 14 13 12 10 8 7 5 4 2 1 3 5 7 8 8 7 9 11 12 14 14 11 9 8 6 6 7 8 12 14 11 10 9 8 8 7 7 6 7 4 2 2 1 2 3 2 1 2 2 1 4 5 2 2 6 10 8 5 6 7 5 7 16 14 3 10 10 8 8 12 14 12 11 14 17 19 21 23 25 27
14 15 15 14 14 13 13 12 11 10 9 9 8 7 6 5 3 0 1 4 8 7 5 7 10 15 16 14 10 7 7 6 4 5 7 9 11 11 11 11 10 11 11 7 4 5 3 2 2 1 2 2 1 0 3 3 3 4 4 4 5 7 8 6 4 6 9 8 7 11 9 2 5 11 11 6 7 9 11 12 13 14 16 18 19 20 21
13 14 14 13 12 11 11 11 11 10 9 8 8 8 8 6 3 2 2 2 4 4 2 5 12 16 14 11 9 9 8 8 7 7 7 7 7 8 9 10 11 12 10 6 4 4 3 2 2 2 3 4 5 3 4 4 3 3 4 3 4 5 4 4 4 5 6 5 3 6 5 4 7 12 14 11 7 5 7 12 11 10 12 13 14 15 16
12 13 12 12 11 10 9 10 11 11 10 8 7 8 9 8 6 4 3 3 3 4 6 12 17 15 11 11 11 10 8 8 9 9 6 3 3 4 6 8 8 9 8 7 5 3 2 3 3 3 3 6 5 3 3 2 2 2 3 2 2 4 5 5 5 6 9 13 15 15 12 13 17 17 15 15 11 5 4 9 9 7 6 8 9 10 13
12 12 11 11 12 10 9 10 10 11 11 9 7 5 6 7 9 8 6 3 2 6 11 15 13 8 7 10 13 12 9 8 8 7 5 3 1 1 2 4 4 5 5 3 3 3 3 3 4 3 3 5 4 2 2 1 1 3 3 4 7 11 13 14 13 14 19 24 25 23 21 21 23 21 18 16 13 5 1 5 9 9 8 8 8 9 10
11 11 10 10 11 11 11 10 10 10 11 11 9 6 4 6 9 11 9 5 1 4 9 9 6 5 7 9 12 13 11 12 12 10 8 7 5 4 3 2 2 1 1 2 2 3 3 4 4 4 4 5 4 3 2 2 2 4 5 11 18 22 24 26 24 22 26 30 28 26 28 32 31 28 25 22 16 6 1 4 9 11 10 10 10 9 10
10 11 10 9 10 10 11 11 11 11 11 12 11 8 4 4 8 11 10 6 2 3 5 6 7 8 7 6 10 12 10 11 13 13 12 11 8 7 5 3 2 2 1 1 2 2 2 3 3 3 3 5 4 1 2 3 3 4 11 22 29 31 33 34 32 30 32 35 33 30 32 37 36 30 24 19 13 6 2 3 7 10 12 13 12 11 12
9 11 11 10 10 11 11 11 12 11 11 11 11 9 7 7 9 9 9 7 3 3 4 4 4 5 4 4 9 12 8 7 10 11 11 10 9 8 6 5 5 5 3 1 2 2 2 3 3 3 4 5 3 1 2 2 2 8 22 32 33 33 34 33 31 29 28 29 27 23 24 31 35 31 25 18 11 8 4 3 6 8 11 15 16 15 15
9 11 12 12 12 12 12 12 12 12 11 11 11 10 9 9 9 8 7 6 4 3 3 2 1 2 3 4 7 10 8 5 5 7 7 7 6 6 5 5 6 7 7 4 2 4 6 4 3 4 4 4 2 0 1 2 6 17 27 31 30 31 32 28 21 18 18 20 21 21 23 29 33 31 28 25 21 18 12 6 7 9 11 15 17 18 18
9 11 12 13 13 13 12 11 11 11 11 11 11 11 8 7 9 8 6 6 5 3 3 2 1 2 4 4 3 7 9 6 4 4 4 5 5 5 4 5 4 5 7 7 4 4 5 4 3 5 5 3 1 1 2 4 13 22 25 28 32 35 37 32 22 15 16 19 20 21 24 29 30 28 25 23 22 21 18 11 10 14 14 14 15 15 16
12 12 12 12 13 13 11 10 9 10 11 11 11 10 7 6 8 8 6 6 5 3 2 2 1 1 3 3 2 7 10 7 3 3 3 3 5 5 4 4 4 3 5 7 5 2 4 6 5 5 5 4 1 1 0 7 18 23 24 28 35 37 34 30 27 24 22 20 19 17 18 20 25 28 28 25 22 21 21 19 18 16 13 11 12 13 13
14 13 11 12 13 12 10 9 8 10 11 12 13 11 8 6 6 6 4 4 4 2 3 3 1 1 1 2 2 6 9 6 4 3 3 2 3 5 4 3 2 2 3 5 3 2 5 7 6 4 4 3 4 7 13 19 23 26 27 29 33 34 32 30 29 26 23 20 17 14 13 14 19 23 26 26 24 21 19 19 17 13 10 10 11 12 13
15 14 12 13 13 10 8 9 11 12 14 14 13 11 8 6 5 4 4 3 2 2 3 2 1 2 2 2 3 5 6 4 3 3 2 1 2 3 3 2 1 2 3 3 2 3 5 6 5 3 3 5 9 16 24 28 29 31 33 35 36 39 39 35 29 23 19 17 15 12 10 11 13 16 19 22 21 17 14 14 12 11 11 13 12 12 12
15 14 14 14 12 8 7 10 14 16 16 15 12 8 5 5 5 4 4 3 2 3 3 2 3 4 3 2 4 5 4 2 2 2 1 2 2 3 2 1 1 2 2 2 4 5 4 3 3 2 3 8 15 22 27 30 33 36 39 40 42 44 45 41 34 26 18 14 13 10 7 9 11 13 15 16 14 11 11 13 12 12 13 13 12 11 10
15 16 16 13 9 7 9 12 16 18 16 12 8 5 4 4 4 3 2 2 2 2 2 1 3 5 3 3 3 5 4 3 3 1 1 1 1 1 1 1 1 2 2 2 5 6 4 1 2 3 3 7 15 23 27 29 33 38 40 41 43 46 48 46 42 34 24 14 10 9 6 5 7 9 11 12 12 12 12 12 12 12 11 10 9 8 9
16 17 15 12 9 10 12 14 15 14 12 8 5 4 4 3 2 1 2 2 1 1 1 2 4 5 4 3 2 3 4 4 3 1 1 1 1 0 0 1 1 2 2 2 4 4 2 1 2 3 3 6 13 20 25 27 30 34 38 40 42 45 48 49 46 42 36 28 20 14 10 6 2 4 9 11 12 13 13 12 11 11 10 9 7 6 7
18 17 14 11 11 12 13 13 11 9 6 4 3 3 2 2 3 2 2 2 1 2 3 4 5 4 4 3 2 2 4 5 4 2 2 1 1 1 1 1 1 2 1 2 4 3 2 2 2 2 4 10 15 18 21 23 25 29 34 38 40 42 45 47 48 45 42 39 33 27 23 18 13 10 12 14 14 14 13 12 11 10 10 9 7 5 5
18 16 12 9 9 9 8 7 6 5 3 2 2 2 1 2 4 3 1 0 3 4 4 4 6 7 7 6 4 4 4 5 4 2 1 1 2 2 1 1 2 2 1 3 4 3 2 2 2 2 8 15 18 17 18 20 22 25 29 33 37 38 40 43 45 45 43 40 38 35 33 30 26 23 20 18 17 16 14 13 13 12 11 10 9 8 9
16 14 10 7 5 5 4 4 3 3 2 1 2 2 2 2 3 2 2 3 5 5 5 7 9 9 8 6 3 2 3 5 5 2 0 1 2 2 2 2 2 1 0 1 2 2 2 2 2 5 13 18 19 18 18 19 19 21 24 28 32 34 36 37 39 41 43 42 39 37 36 34 31 30 28 26 25 23 21 18 16 16 15 14 13 13 15
13 10 8 5 3 3 3 2 3 3 2 1 1 1 2 4 3 2 3 6 6 7 9 11 9 6 5 5 2 2 3 4 3 2 0 2 2 2 2 1 2 1 1 2 2 2 2 2 4 10 16 19 19 19 17 16 16 18 20 23 27 31 34 35 35 36 38 40 40 39 38 36 34 33 33 32 31 30 28 26 23 21 20 19 19 19 19
10 9 7 4 3 4 3 2 3 3 1 1 0 1 2 2 3 3 5 9 10 13 16 14 6 4 6 5 2 1 2 1 1 1 1 2 3 2 1 1 1 1 2 2 2 2 2 2 7 14 18 19 18 18 16 14 13 14 16 18 22 26 29 32 33 33 33 35 37 39 39 38 36 36 35 34 34 33 32 30 29 28 27 26 25 23 22
8 7 5 2 2 4 3 1 1 2 1 1 2 2 3 4 6 6 9 13 14 17 18 14 6 2 4 3 2 3 5 3 2 3 4 3 2 1 1 1 2 2 2 1 2 3 2 3 9 15 19 19 18 17 16 14 12 12 13 15 17 21 24 26 28 29 29 30 32 34 36 36 36 35 35 35 36 35 34 32 31 31 31 31 29 28 26
5 5 4 2 1 3 3 1 0 1 3 4 4 5 7 11 12 11 13 15 16 17 16 10 3 3 5 4 3 5 8 6 3 3 5 3 1 1 2 2 2 2 2 2 2 2 2 6 12 17 20 20 18 18 18 17 15 14 14 14 13 15 18 21 23 25 26 26 27 28 30 32 33 33 33 33 34 34 33 32 31 31 32 31 30 29 29
5 4 3 1 1 1 1 0 1 2 6 8 8 10 12 14 14 13 14 16 17 15 12 7 2 1 4 5 4 3 5 7 4 3 4 3 1 1 3 2 1 1 2 2 1 2 4 9 15 17 18 20 19 17 17 17 16 14 14 14 13 13 14 16 18 20 21 23 24 25 26 27 28 29 30 30 30 30 29 29 28 29 30 31 30 30 31
4 4 3 1 1 1 2 2 1 4 8 9 9 10 13 14 12 12 14 17 17 12 7 6 5 2 1 3 4 2 3 4 3 1 2 3 2 1 2 2 1 1 1 1 2 4 7 12 14 15 16 17 17 16 15 15 14 13 14 14 13 13 13 13 15 16 18 19 20 21 21 23 24 25 25 25 26 26 26 26 26 26 27 28 29 29 30
2 2 3 2 1 1 1 2 2 4 7 8 8 10 12 12 11 11 13 16 17 13 8 8 8 5 2 2 3 2 1 2 2 1 2 3 1 1 2 2 1 1 2 3 6 8 11 13 13 12 12 14 15 15 14 13 12 11 11 12 13 13 13 13 13 14 15 17 17 17 18 19 20 21 21 21 20 21 22 24 24 23 23 24 25 26 26
1 1 2 2 2 2 1 1 1 2 4 6 7 9 10 9 8 9 11 14 16 14 9 5 5 4 3 3 2 1 1 2 2 2 2 2 1 1 2 2 2 3 4 6 8 9 11 12 11 11 12 14 14 14 12 11 10 10 10 10 11 13 13 13 13 14 14 14 15 15 16 16 16 16 16 16 16 17 19 20 20 20 20 20 20 21 22
1 2 3 3 3 4 3 3 3 3 2 3 4 6 7 7 7 7 9 12 14 11 7 5 4 3 2 1 1 1 2 2 2 2 1 1 1 1 1 3 3 1 2 4 5 7 9 10 11 12 13 14 15 14 11 8 8 9 9 9 10 11 11 12 12 12 12 13 13 12 13 14 14 13 13 14 15 17 17 16 15 15 16 16 16 17 18
Wind_Direction
336 337 335 334 334 334 336 336 336 339 340 344 351 354 354 349 335 358 14 9 355 39 81 9 3 53 346 326 327 340 0 20 7 5 9 11 6 2 12 36 33 21 353 338 347 359 32 138 117 54 354 341 328 338 356 356 349 347 330 309 329 328 320 316 304 292 277 270 265 266 269 265 268 280 253 216 214 201 200 205 181 183 212 193 208 259 265
335 336 336 335 335 334 337 337 337 341 341 343 349 352 352 340 326 356 20 20 22 63 62 345 349 0 341 338 359 359 12 37 25 11 18 20 357 340 14 24 25 2 352 8 0 359 30 175 161 93 110 314 342 344 355 358 352 337 318 322 337 333 336 351 336 327 296 277 258 279 322 10 344 301 289 270 240 211 199 128 154 207 209 183 196 242 253
335 336 336 335 335 335 337 336 337 342 342 343 348 350 351 347 328 343 5 26 54 70 57 11 343 337 344 338 357 2 12 35 29 20 29 24 3 336 356 5 6 6 10 14 350 4 41 37 177 150 232 273 351 352 357 357 345 321 313 326 337 315 264 342 332 297 268 251 245 295 328 337 314 291 292 300 281 233 209 147 170 223 206 176 201 236 258
335 336 335 334 335 336 336 336 336 341 344 346 351 355 358 5 354 336 347 18 50 56 46 32 17 330 352 343 346 8 3 10 17 19 32 18 2 343 336 1 11 14 15 10 335 337 29 12 325 199 249 319 206 20 8 347 333 332 330 334 338 289 242 263 222 239 256 261 284 290 286 288 288 291 293 295 295 275 235 181 189 201 174 191 218 229 261
336 336 335 334 335 336 337 337 336 341 350 354 355 2 12 24 74 356 340 357 23 29 25 21 11 326 334 317 296 4 7 350 3 19 27 6 357 342 344 20 24 3 358 360 305 312 347 341 312 299 320 325 262 125 33 336 334 357 346 331 327 274 281 281 241 249 261 267 281 283 280 273 269 277 284 282 283 281 252 225 202 155 153 226 239 195 223
336 335 334 333 334 336 337 338 339 345 355 3 1 7 25 36 65 59 32 348 350 2 347 346 340 321 323 307 280 0 12 9 3 9 358 357 5 11 359 11 7 340 342 347 286 314 327 285 293 316 312 313 307 335 67 320 342 5 343 320 312 258 273 279 273 281 280 277 279 275 266 261 260 264 269 272 274 267 250 241 206 158 181 226 220 183 209
336 335 334 332 333 335 338 340 343 348 356 5 8 8 19 44 75 43 27 343 289 292 305 313 318 319 319 324 13 7 9 5 357 347 337 341 2 35 354 334 335 326 326 334 297 304 308 283 290 308 302 308 308 303 268 298 342 348 326 310 295 264 257 282 297 302 294 286 279 266 260 273 283 276 267 268 267 257 249 243 207 179 193 208 186 192 218
337 335 333 332 333 335 338 340 342 348 352 356 6 9 359 16 17 343 353 319 285 295 307 312 321 331 328 335 4 354 351 353 342 313 295 297 322 21 347 314 317 314 313 315 284 265 260 264 274 281 301 307 290 246 189 204 262 295 302 308 293 273 277 314 324 315 299 294 288 285 296 302 290 279 285 294 276 246 233 229 211 192 188 176 170 202 234
337 336 333 332 333 335 338 337 338 346 346 339 349 4 354 329 299 313 331 311 298 309 314 320 328 328 338 356 5 355 342 344 334 300 256 235 257 324 325 312 309 308 308 297 274 273 270 272 279 277 271 270 273 272 203 180 210 267 248 260 287 289 289 321 0 333 291 298 329 321 318 311 283 283 327 332 323 244 190 149 83 221 191 158 150 203 245
337 336 335 333 332 333 337 336 337 345 337 323 326 330 328 316 287 282 311 306 307 310 306 321 347 343 350 352 353 339 317 320 331 319 299 272 286 307 309 302 303 305 296 283 285 294 295 291 290 285 278 271 270 269 249 224 229 246 220 211 250 271 280 307 13 312 277 303 328 317 317 314 273 294 357 345 351 24 51 57 32 357 210 160 185 225 264
337 336 335 334 332 334 338 337 336 337 324 313 309 300 303 302 282 267 264 277 272 279 293 305 312 306 325 333 330 316 308 311 307 296 314 302 306 312 308 295 284 263 280 299 309 305 299 295 292 287 279 271 264 262 256 246 237 229 220 210 238 253 266 286 219 260 286 309 316 309 301 172 236 147 29 354 354 25 43 56 33 10 15 30 246 259 301
337 336 336 337 335 334 334 329 327 328 318 305 299 292 292 288 277 260 198 233 288 292 275 270 276 296 305 304 301 295 297 306 302 284 268 277 299 309 310 299 279 286 311 318 317 308 299 293 288 282 274 267 262 257 252 245 234 224 218 212 221 248 262 261 210 227 285 308 321 314 157 191 283 339 28 356 347 12 23 52 40 24 13 359 340 323 317
337 337 338 339 337 333 330 327 329 336 335 307 286 286 287 277 268 246 188 200 278 233 260 282 276 279 284 282 284 289 295 306 309 296 273 271 291 305 313 316 312 313 320 322 316 307 301 295 292 286 277 272 265 253 240 233 232 228 222 215 214 230 250 258 233 240 280 309 333 224 212 300 313 304 353 355 355 355 354 20 29 19 9 357 344 328 321
338 338 338 338 337 335 334 338 340 340 336 320 292 284 284 274 268 255 221 207 261 241 264 295 282 270 272 274 285 304 307 309 309 298 287 287 290 297 310 325 329 324 324 323 315 307 312 321 330 323 298 296 304 280 239 225 227 227 225 219 211 213 228 254 246 226 236 291 301 277 284 313 322 308 345 341 327 331 337 351 13 9 5 356 342 330 330
339 338 336 336 335 336 338 339 333 324 320 317 303 289 279 269 271 266 242 217 253 267 248 240 242 247 267 287 295 303 305 303 299 297 302 299 293 300 320 335 338 334 330 325 314 315 44 3 342 333 318 342 351 327 345 304 240 232 229 219 208 207 213 215 220 219 259 336 321 319 300 280 266 337 323 302 270 287 294 258 348 2 360 354 347 340 339
338 336 335 334 334 335 333 328 321 314 308 307 305 297 284 270 267 263 248 233 228 272 231 213 223 240 275 295 289 275 265 269 306 312 305 291 299 312 329 339 341 343 341 333 317 102 17 4 260 294 281 312 331 304 308 319 288 275 250 214 201 202 208 218 242 260 302 316 299 299 263 250 313 330 319 309 309 306 277 209 32 360 353 352 350 346 349
337 336 335 335 335 333 326 320 321 322 311 302 300 299 295 282 268 257 248 236 225 248 254 246 244 250 272 294 286 270 261 268 288 295 286 304 309 312 327 338 342 352 353 342 350 69 16 339 316 317 270 278 321 307 302 312 301 330 345 207 193 193 200 219 231 237 252 257 259 268 245 267 317 325 316 311 313 313 292 106 36 350 346 349 348 350 358
338 338 338 338 337 333 328 324 327 329 321 304 292 292 297 291 276 259 246 237 235 259 265 257 249 248 249 264 270 266 273 283 282 258 269 289 291 306 330 337 338 348 354 353 36 56 8 314 296 331 282 288 321 308 307 327 324 334 348 311 191 179 190 224 226 230 246 242 247 277 256 266 317 319 316 313 310 316 78 66 360 340 344 350 353 356 359
340 340 342 342 339 336 335 334 328 319 313 302 287 286 292 290 282 267 247 237 233 247 259 261 264 266 266 268 270 271 274 276 270 263 286 278 254 318 324 323 316 325 338 358 64 42 3 317 283 296 267 281 328 320 309 323 337 330 321 310 163 146 160 233 225 227 242 223 236 282 260 350 336 322 324 330 334 55 48 358 349 347 347 350 357 4 6
343 343 345 346 344 342 342 340 330 314 303 294 281 280 286 289 283 274 258 245 241 256 269 274 274 274 273 268 265 268 269 263 252 243 254 260 290 325 321 306 8 340 330 356 15 3 41 297 302 306 296 283 290 315 323 320 325 323 313 330 45 142 206 244 221 221 233 218 236 286 251 356 352 335 333 3 31 6 341 347 353 360 1 357 359 8 13
345 347 349 350 350 350 349 346 339 326 304 282 275 279 288 295 290 279 275 263 250 260 279 288 286 285 284 280 278 276 269 264 259 252 253 268 285 306 302 231 329 325 306 123 0 242 201 286 294 265 300 298 272 321 333 322 311 311 302 316 25 69 24 327 298 330 7 191 230 349 274 346 8 6 21 63 49 19 12 11 2 5 9 5 0 4 12
348 351 355 356 355 356 358 359 355 348 334 296 273 276 285 295 299 292 292 280 261 262 278 289 291 294 292 288 286 281 272 270 270 264 261 267 271 263 255 260 267 256 242 213 192 222 225 239 275 294 292 288 287 311 315 301 297 343 331 332 25 8 345 316 284 301 311 263 277 347 16 31 40 48 69 69 51 28 22 21 14 10 10 8 2 1 9
351 356 1 2 2 3 9 14 12 6 0 346 294 277 276 279 280 277 283 285 276 279 290 297 298 302 305 299 291 288 281 273 272 266 253 250 257 257 252 254 256 247 240 222 211 237 208 179 198 274 258 265 297 304 297 284 294 347 347 339 322 325 331 334 305 294 288 266 272 5 35 72 67 54 60 65 49 21 12 18 21 17 10 7 5 2 8
356 2 6 7 8 13 19 24 23 19 18 20 11 333 299 273 257 258 269 278 278 285 299 305 302 312 330 332 320 311 305 289 281 280 244 224 230 243 243 246 246 232 233 238 231 233 237 218 228 220 233 268 291 290 291 302 351 0 353 334 304 343 0 359 325 303 308 303 353 347 338 121 100 58 57 70 51 24 12 15 18 16 9 6 7 6 11
1 6 10 12 14 19 24 28 30 32 33 33 37 40 35 20 277 240 256 271 274 281 298 303 312 335 347 344 337 330 327 309 278 274 250 230 231 237 246 256 245 234 266 294 256 225 232 264 247 235 261 264 248 230 276 299 359 354 345 319 304 349 356 349 322 307 310 299 309 321 316 181 113 54 40 79 59 32 18 10 9 11 9 3 5 11 14
6 9 11 15 19 24 28 29 32 40 45 40 39 46 51 52 61 100 276 281 280 278 266 281 320 349 354 348 354 0 346 333 298 272 269 258 253 256 262 263 257 259 277 288 242 227 254 283 261 247 231 253 339 244 263 292 317 313 300 284 289 310 321 322 314 307 300 289 304 326 323 189 93 24 10 33 60 37 13 3 4 10 11 5 4 9 13
10 12 13 17 22 27 31 32 32 36 41 41 41 44 47 53 64 66 46 5 308 292 244 275 318 347 1 4 14 15 352 337 326 305 287 268 263 267 258 252 260 270 268 248 236 269 293 272 265 247 236 293 321 291 252 284 305 276 271 283 285 287 298 311 311 298 282 264 297 343 338 286 300 328 336 345 16 38 5 360 8 19 24 21 12 5 4
12 13 15 20 24 27 29 31 32 31 30 28 30 35 40 42 39 33 34 23 335 296 281 291 308 334 4 16 18 17 0 341 334 326 317 290 262 256 237 235 250 257 246 237 252 269 241 236 257 250 260 293 308 281 253 289 305 264 265 264 259 281 303 310 298 283 273 271 281 294 293 281 283 290 298 319 342 359 351 1 12 14 17 27 26 13 5
10 10 12 16 21 24 24 23 24 25 23 18 8 9 29 38 30 20 13 11 334 294 295 301 311 331 354 7 20 27 23 14 9 6 17 49 107 180 183 191 205 219 228 248 281 274 264 276 275 269 286 298 297 285 293 319 281 266 272 292 303 304 300 293 285 280 278 278 283 289 285 278 281 286 289 305 327 344 38 15 5 353 350 1 7 7 5
5 4 3 6 12 17 16 15 15 14 14 12 3 351 9 33 20 6 359 3 337 291 298 300 306 324 335 359 22 30 31 35 39 43 52 67 84 88 87 111 138 224 274 309 319 293 291 308 302 291 312 323 310 297 320 322 270 265 301 318 315 307 298 291 284 275 274 277 279 282 280 278 280 284 286 290 297 301 91 30 357 348 350 352 347 346 351
358 356 354 354 356 360 2 4 5 5 5 7 5 359 5 17 2 351 350 352 326 290 295 281 282 307 328 7 23 23 33 46 49 54 60 64 70 74 74 75 60 39 350 317 349 331 291 309 305 289 322 342 340 298 305 308 271 281 316 319 313 306 301 296 289 279 275 276 277 277 276 274 274 276 281 284 279 251 175 31 354 342 343 340 334 335 344
352 350 350 349 347 346 345 346 351 353 355 358 0 358 351 349 347 342 341 342 327 307 309 293 290 311 321 355 11 14 27 48 51 56 63 62 62 66 66 66 62 49 28 3 14 5 339 322 302 283 310 332 332 256 270 290 272 301 312 315 314 313 312 306 294 284 278 275 271 266 264 264 262 260 261 266 260 238 232 356 355 339 333 330 326 326 330
346 346 348 348 345 342 338 336 338 341 344 348 353 352 345 344 347 342 338 344 348 327 322 323 293 303 310 328 5 16 22 33 40 46 51 50 50 51 46 45 47 37 28 28 13 350 351 348 313 306 320 332 351 92 202 255 299 309 315 322 326 330 333 330 311 291 288 283 269 254 252 259 261 259 257 253 248 247 255 291 331 320 314 318 320 322 325
341 337 340 341 342 341 338 336 333 332 335 341 347 349 347 349 353 351 345 351 357 344 339 356 328 297 319 323 358 17 16 13 17 24 28 31 30 26 16 10 13 24 25 18 0 347 352 348 324 323 321 304 296 129 175 291 320 326 334 345 350 349 349 349 341 325 319 313 294 277 271 270 266 260 253 243 234 233 237 252 289 299 300 306 312 319 326
347 336 330 331 336 339 339 338 337 336 337 340 343 345 343 338 347 352 356 2 4 348 331 2 22 329 334 327 340 7 7 5 13 20 16 21 23 18 8 0 2 18 8 356 353 5 355 345 339 328 311 296 313 87 343 329 338 345 354 1 1 358 353 346 338 331 327 323 314 304 294 279 263 253 248 242 234 229 229 241 263 279 288 298 307 313 320
353 347 338 333 337 340 340 343 345 345 344 343 344 348 348 337 335 340 344 2 10 330 303 329 344 230 287 265 283 341 356 1 8 7 357 357 8 5 3 4 357 337 341 346 350 356 347 352 359 338 316 337 22 6 354 351 351 354 360 3 4 3 358 348 339 332 327 324 321 313 299 282 265 254 249 249 249 246 244 249 257 264 275 292 302 304 307
352 351 350 347 346 345 344 347 348 347 346 346 346 347 348 343 336 326 315 327 344 308 304 317 269 244 247 249 282 325 352 3 350 342 347 354 348 349 4 19 309 305 340 1 354 331 337 1 24 4 329 6 17 4 0 2 1 359 0 3 5 5 3 360 354 344 333 330 330 323 302 284 270 254 245 246 249 247 239 235 238 251 270 284 292 295 297
352 352 351 351 351 347 342 344 343 341 342 347 348 341 332 330 326 311 296 290 286 293 298 296 306 307 287 256 300 325 340 348 340 346 24 23 355 338 346 3 332 330 348 355 346 342 342 9 39 18 333 357 8 6 5 6 7 7 6 6 6 6 5 5 7 4 352 335 326 321 300 270 256 244 234 233 233 226 218 218 224 241 259 269 278 286 291
352 353 350 349 346 335 331 336 338 336 338 344 347 332 317 326 328 313 297 282 270 279 268 243 307 319 288 238 295 327 325 323 340 354 12 15 6 324 315 326 0 11 15 353 350 357 4 15 14 9 351 355 5 8 7 7 10 12 12 11 11 10 9 10 14 18 20 13 352 345 342 300 263 238 216 206 201 197 200 206 209 215 227 240 252 265 282
350 349 346 341 333 326 326 329 331 332 332 337 338 324 320 327 314 284 316 323 284 250 264 277 296 308 300 280 303 327 322 318 321 315 298 289 255 252 333 343 5 23 31 330 335 357 35 46 350 359 5 356 359 6 9 11 13 14 14 15 16 17 16 17 20 27 36 42 42 44 54 52 3 212 189 179 170 167 172 177 178 182 192 204 217 242 273
346 344 337 327 322 323 325 326 329 331 330 330 333 328 326 325 304 296 350 6 316 286 308 310 301 303 313 308 274 279 307 317 315 309 324 326 331 52 71 307 356 47 61 309 328 11 63 39 355 352 359 357 357 2 8 11 12 13 16 20 22 22 22 23 25 30 38 44 48 56 69 76 82 108 137 143 138 137 142 148 152 159 168 177 189 216 233
338 337 332 321 319 325 328 327 332 338 337 343 348 333 318 335 331 329 7 4 296 299 313 311 303 306 311 305 281 269 296 311 307 307 341 338 347 33 66 324 11 55 27 310 338 23 34 4 9 353 348 354 0 5 8 11 13 14 17 22 26 28 28 28 28 30 35 41 45 51 60 67 71 79 92 104 107 107 111 120 129 135 143 156 169 178 175
333 338 342 338 337 350 351 343 352 5 13 41 28 356 339 349 341 317 298 305 306 308 312 309 311 315 313 299 273 251 275 284 276 255 184 6 345 22 55 34 13 50 142 335 14 33 8 359 9 349 349 358 8 11 10 14 20 20 20 24 29 32 33 33 32 33 35 37 41 46 53 58 63 69 75 80 83 83 84 89 99 109 121 133 140 138 137
338 348 355 352 355 9 0 344 7 22 22 36 53 37 344 336 319 284 313 323 313 308 313 313 306 292 285 285 266 201 239 265 267 249 244 28 25 39 63 15 299 272 79 51 35 27 16 359 342 344 353 3 11 13 13 18 23 22 22 25 30 33 35 36 36 36 35 35 38 43 48 51 55 60 65 68 73 76 76 75 78 87 99 110 114 113 115
350 360 5 6 4 9 8 350 4 21 26 328 353 172 214 283 274 263 311 324 319 322 331 335 321 257 267 286 299 244 257 260 75 25 344 40 46 22 314 247 294 2 51 43 1 9 38 353 334 340 349 356 4 11 16 22 28 28 27 28 31 34 36 37 37 38 37 36 38 41 44 46 48 51 55 58 64 69 72 73 72 74 80 86 89 90 95
0 5 18 41 10 5 23 46 354 357 337 283 273 240 259 298 302 308 330 339 338 337 342 348 357 340 322 331 36 14 357 18 57 1 359 49 78 332 328 54 40 21 42 52 359 1 0 314 326 339 348 354 3 11 14 15 24 32 31 30 32 35 36 37 38 38 38 39 40 42 43 45 45 46 49 54 59 63 67 71 72 72 74 76 75 75 80
3 2 19 61 25 5 24 63 267 336 340 333 336 347 347 341 337 339 347 349 345 340 339 342 8 46 30 34 46 19 16 30 37 355 1 41 131 306 1 44 45 22 36 35 2 344 286 306 328 346 359 6 12 14 12 9 13 21 24 27 34 39 39 38 38 38 38 40 41 41 43 46 46 45 46 51 55 59 63 67 68 68 70 73 74 74 76
16 10 18 82 182 346 13 159 188 11 7 5 8 10 4 357 354 356 355 350 346 344 345 348 359 71 44 40 51 37 18 24 26 359 360 26 59 348 7 27 37 36 39 13 313 257 283 318 338 359 16 20 18 17 17 14 13 19 28 34 39 42 43 43 42 40 38 39 41 42 42 44 47 48 48 50 53 57 61 65 65 64 66 69 72 73 74
43 40 51 96 147 124 106 117 88 11 7 13 18 13 5 3 6 7 359 351 350 355 10 26 29 24 356 23 44 54 19 16 26 14 8 23 31 3 356 2 356 7 24 310 270 286 316 336 355 18 30 24 17 17 19 18 18 25 34 39 41 44 47 48 46 44 42 41 41 43 42 41 44 47 49 50 52 57 61 64 63 62 62 64 67 70 72
74 62 59 62 70 81 80 81 37 352 354 5 12 6 1 3 9 11 6 3 7 20 43 49 40 33 21 23 40 48 14 18 53 64 36 30 14 337 358 9 339 320 315 296 299 315 334 350 8 27 32 25 20 19 18 18 23 32 41 47 51 53 55 52 48 48 48 46 44 42 42 41 42 46 49 51 54 58 61 62 61 61 64 65 66 68 70
66 99 97 97 115 128 125 132 191 300 332 352 359 357 357 4 10 13 15 21 27 34 37 28 18 25 37 38 32 16 15 39 62 71 51 29 6 14 18 343 299 305 313 308 313 336 1 17 29 39 39 35 30 25 21 23 32 41 50 59 61 59 57 54 50 48 49 49 46 44 44 43 42 44 49 55 58 60 61 61 60 61 64 67 69 70 73
4 147 157 155 145 135 134 152 183 225 289 338 354 354 359 12 22 27 31 38 41 39 28 14 27 58 69 24 343 356 32 42 48 56 42 23 18 36 229 240 248 287 342 326 335 5 27 38 46 48 44 38 33 28 24 29 44 53 56 60 61 58 56 53 49 46 46 48 48 47 46 45 42 41 46 55 59 59 60 61 63 63 62 61 64 72 79